星链-1536 (STARLINK-1536 )

导读 | 豆包AI

STARLINK-1536是美国SpaceX公司星链(Starlink)低轨卫星互联网星座的组成卫星,于2020年8月7日在美国发射升空。作为星链星座的早期组网卫星,它运行在近地轨道,为实现全球高速低延迟互联网覆盖提供支撑,服务偏远区域网络接入,同时也支持应急通信等场景,是星链全球星座部署进程中的重要节点,目前已在轨运行多年,参与构建全球低轨卫星通信网络。

基本信息
目录编号:
46070
目录名称:
STARLINK-1536
国际标识:
2020-055AV
轨道中心:
EARTH
卫星名称:
星链-1536
卫星全名:
星链-1536 (STARLINK-1536 )
卫星状态:
在轨 (已飞行2045 天)
发射日期:
2020-08-07 UTC
国别 :
美国 (US)
星等 :
--
轨道信息
数据来源 国际轨道数据 AOE轨道数据
星历时间 2026-03-13T17:34:49+0800
1天前
查看轨道信息
2026-03-11T06:00:00+0800
3天前
查看轨道信息
半长轴 6925.357km 6925.317km
偏心率 0.0001441 0.0001798
轨道倾角 53.056° 53.056°
近地点辐角 97.352° 81.345°
升交点赤经 79.962° 91.112°
平近点角 262.764° 128.632°
近地点 546.222km 545.934km
远地点 548.218km 548.426km
周期 95.592分钟 95.591分钟
每日圈数 15.063973 15.064106
详细信息
固有亮度:
5
最大亮度:
2.5
卫星平台:
Starlink V1.0
覆盖范围:
全球
运营商:
太空探索技术公司
运营商所在国:
美国
制造商(研发单位):
太空探索技术公司
制造商所在国:
美国
使用方式:
暂无
卫星简介
星链(Starlink)计划是由太空探索技术公司(SpaceX)提出的一个巨型低轨卫星互联网星座项目,计划在2019年至2024年间在太空搭建由约1.2万颗卫星组成的“星链”网络,其中1584颗将部署在地球上空550千米处的近地轨道,并从2020年开始工作。该卫星仍在工作。
2D轨道图
3D轨道图
轨道高度分析图
轨道倾角分析图
轨道综合分析图
查看轨道综合分析图